Regional Weather Roundup
Issued by NWS

Home | Current Version | Previous Version | Text Only | Print | Product List | Glossary Off
Versions: 1 2 3 4 5 6 7 8 9 10 11 12 13 14 15 16 17 18 19 20 21 22 23 24 25 26 27 28 29 30 31 32 33 34 35 36 37 38 39 40 41 42 43 44 45 46 47 48 49 50

000
ASUS45 KTFX 200719
RWRMT
MONTANA HOURLY WEATHER ROUNDUP
NATIONAL WEATHER SERVICE GREAT FALLS MT
119 AM MDT WED AUG 20 2014

NOTE: "FAIR" INDICATES FEW OR NO CLOUDS BELOW 12000 FEET WITH NO
SIGNIFICANT WEATHER AND/OR OBSTRUCTIONS TO VISIBILITY.

* THESE STATIONS ARE NOT UNDER NWS QUALITY CONTROL. THEY DO NOT
   REPORT WEATHER SUCH AS PRECIPITATION OR FOG.

MTZ001>007-043-200800-
WEST OF THE DIVIDE
CITY           SKY/WX    TMP DP  RH WIND       PRES   REMARKS
KALISPELL      CLOUDY    59  57  93 N8        29.76F
MISSOULA       MOCLDY    66  45  47 VRB6      29.80R
BUTTE          PTCLDY    55  43  64 CALM      29.92S
MULLAN PASS    CLEAR     54  43  67 S8        29.92S
$$

MTZ008-052>055-200800-
SOUTHWEST MONTANA
CITY           SKY/WX    TMP DP  RH WIND       PRES   REMARKS
BOZEMAN        CLOUDY    59  52  78 CALM      29.85F
DILLON         PTCLDY    54  46  74 E6        29.91R
W YELLOWSTONE  CLOUDY    46  46 100 CALM      30.04F
* RAYNOLDS PAS N/A       49  30  48 SE10       N/A
$$

MTZ009>010-012-014-046-048-049-054-200800-
EAST SLOPES AND CENTRAL MONTANA
CITY           SKY/WX    TMP DP  RH WIND       PRES   REMARKS
CUT BANK       MOCLDY    55  48  77 N8        29.79R
GREAT FALLS    MOCLDY    63  54  73 E6        29.77S
HELENA         PTCLDY    70  48  46 CALM      29.81R
MALMSTROM AFB  MOCLDY    63  50  63 E6        29.79R
* EAST GLACIER N/A       58  49  72 W16        N/A
$$

MTZ011-013-016-021-035-040-045-047-050-051-200800-
NORTH CENTRAL MONTANA
CITY           SKY/WX    TMP DP  RH WIND       PRES   REMARKS
HAVRE          MOCLDY    64  52  65 SW9       29.69R
LEWISTOWN      CLOUDY    64  45  50 W7        29.77R
* FORT BENTON  MOCLDY    70  46  42 W13       29.74R
* CHESTER      N/A       65  47  52 NW2        N/A
* LOMA         N/A       71  46  41 W6         N/A
$$

MTZ017>020-022>027-061-062-200800-
NORTHEAST MONTANA
CITY           SKY/WX    TMP DP  RH WIND       PRES   REMARKS
GLASGOW        PTCLDY    70  48  46 CALM      29.59R
GLENDIVE       CLOUDY    72  57  59 S9        29.66R
JORDAN         PTCLDY    64  55  73 SW5       29.61F
SIDNEY         CLOUDY    66  57  73 CALM      29.63F
WOLF POINT     PTCLDY    64  45  50 NE6       29.60F
* BEAVER HILL  N/A       74  56  54 SE17G22    N/A
$$

MTZ028>042-056>058-200800-
SOUTHCENTRAL AND SOUTHEAST MONTANA
CITY           SKY/WX    TMP DP  RH WIND       PRES   REMARKS
BAKER          PTCLDY    70  57  64 SE14      29.69F
BILLINGS       MOCLDY    72  43  35 SW12      29.75R
LIVINGSTON     CLOUDY    66  43  43 SW25G44   29.80S
MILES CITY     CLOUDY    73  50  44 S9        29.63F
$$

REGIONAL REPORTS...DAKOTAS
CITY           SKY/WX    TMP DP  RH WIND       PRES   REMARKS
WILLISTON      MOCLDY    73  61  66 S6        29.64S
DICKINSON      PTCLDY    64  57  78 S7        29.68F
BEACH          N/A       66  59  78 SE10      29.67F
CROSBY         CLEAR     72  63  73 S18G24    29.62F
TIOGA          CLEAR     68  68 100 SE9       29.70S
WATFORD CITY   CLEAR     66  61  84 SE3       29.63F
BISMARCK       PTCLDY    70  61  73 SE7       29.72F
GRAND FORKS    CLEAR     66  63  90 SE5       29.76S
FARGO          CLEAR     66  63  90 SE6       29.77R
BUFFALO SD     PTCLDY    72  59  64 SE13      29.65S
RAPID CITY     CLOUDY    72  55  55 S10       29.75S
$$

REGIONAL REPORTS...WYOMING/IDAHO/WASHINGTON
CITY           SKY/WX    TMP DP  RH WIND       PRES   REMARKS
GILLETTE       CLOUDY    75  45  34 SW21G29   29.75S
SHERIDAN       CLOUDY    68  48  49 S7        29.74S
CODY           CLOUDY    66  46  49 W12G18    29.87F
YELLOWSTONE LA CLOUDY    46  43  89 CALM      30.11F
SALMON         CLOUDY    55  52  90 CALM      29.89R
MULLAN PASS    CLEAR     54  43  67 S8        29.92S
SAND POINT     LGT RAIN  61  61 100 NE6       29.74R
SPOKANE        MOCLDY    66  54  65 E3        29.72R
$$

REGIONAL REPORTS...ALBERTA
CITY           SKY/WX    TMP DP  RH WIND       PRES   REMARKS
CALGARY        LGT RAIN  57  55  93 W5        29.78S
LETHBRIDGE     PTCLDY    54  52  93 SE5       29.76S
MEDICINE HAT   FAIR      59  57  93 SW9       29.70S
EDMONTON       MOCLDY    50  48  93 SW3       29.75R
WATERTON GATE  N/A       61  48  62 SW13G22    N/A
CARDSTON       N/A       55  52  90 SW5        N/A
$$

REGIONAL REPORTS...SASKATCHEWAN
CITY           SKY/WX    TMP DP  RH WIND       PRES   REMARKS
SWIFT CURRENT  MOCLDY    63  61  93 NW23G31   29.66R
REGINA         CLOUDY    66  63  90 NE10      29.61R
VAL MARIE      N/A       57  52  83 SW1        N/A
ASSINIBOIA     N/A       63  57  81 SE3        N/A
CORONACH       N/A       59  57  93 SE5        N/A

$$



USA.gov is the U.S. government's official web portal to all federal, state and local government web resources and services.